Location: Gro�bocka
(50.8204°N, 11.9702°E)
Time: 14:47:17
(UTC+00:00)

Cosmos 2058 Rocket - Pass Details

Date: 29 October 2020
Orbit: 610 x 640 km, 82.5° (Epoch: 28 November)

Event Time Altitude Azimuth Distance (km) Brightness Sun altitude
Rises 16:40:53 0° 171° (S) 2,922 6.6 -8.3°
Reaches altitude 10° 16:43:10 10° 165° (SSE) 2,021 5.7 -8.7°
Maximum altitude 16:47:27 45° 93° (E) 875 3.4 -9.3°
Drops below altitude 10° 16:51:46 10° 21° (NNE) 2,044 5.4 -10.0°
Sets 16:54:05 0° 16° (NNE) 2,959 6.3 -10.4°
